DW2227 Weather Reports


Display with metric or nautical units.
time (UTC)temp
F
wind
direction
speed
MPH
gust
MPH
rain 1hr
in
rain 24hr
in
rain mn
in
humidity
%
barometer
mb
20260903143329 84 262 0.0 3.0 0.00 0.00 0.00 72 1013.7
20260903142823 84 68 0.0 2.0 0.00 0.00 0.00 75 1013.7
20260903142317 84 290 0.0 3.0 0.00 0.00 0.00 74 1013.7
20260903141831 83 313 0.0 4.0 0.00 0.00 0.00 75 1013.8
20260903141327 83 254 1.0 4.0 0.00 0.00 0.00 75 1013.7
20260903140822 82 104 1.0 6.0 0.00 0.00 0.00 75 1013.5
20260903140331 82 280 1.0 6.0 0.00 0.00 0.00 77 1013.6
20260903135824 81 26 0.0 2.0 0.00 0.00 0.00 78 1013.5
20260903135319 81 302 0.0 2.0 0.00 0.00 0.00 79 1013.5
20260903134832 80 184 1.0 6.0 0.00 0.00 0.00 80 1013.5
20260903134326 80 158 0.0 6.0 0.00 0.00 0.00 81 1013.7
20260903133820 80 46 0.0 3.0 0.00 0.00 0.00 81 1013.6
20260903133334 79 263 0.0 2.0 0.00 0.00 0.00 83 1013.7
20260903132826 79 222 0.0 0.0 0.00 0.00 0.00 84 1013.6
20260903132318 78 230 0.0 1.0 0.00 0.00 0.00 84 1013.6
20260903131832 78 230 0.0 1.0 0.00 0.00 0.00 85 1013.5
20260903131327 78 230 0.0 1.0 0.00 0.00 0.00 86 1013.7
20260903130819 78 230 0.0 1.0 0.00 0.00 0.00 85 1013.7
20260903130334 77 216 0.0 2.0 0.00 0.00 0.00 84 1013.4
20260903125830 77 216 0.0 2.0 0.00 0.00 0.00 85 1013.5
20260903125325 77 285 0.0 0.0 0.00 0.00 0.00 86 1013.5
20260903124820 76 53 0.0 0.0 0.00 0.00 0.00 87 1013.5
20260903124333 76 53 0.0 0.0 0.00 0.00 0.00 86 1013.5
20260903123829 76 53 0.0 0.0 0.00 0.00 0.00 87 1013.5
20260903123324 76 53 0.0 0.0 0.00 0.00 0.00 87 1013.4
20260903122818 76 71 0.0 0.0 0.00 0.00 0.00 87 1013.5
20260903122334 76 71 0.0 0.0 0.00 0.00 0.00 87 1013.5
20260903121828 76 71 0.0 0.0 0.00 0.00 0.00 87 1013.4
20260903121343 76 71 0.0 0.0 0.00 0.00 0.00 87 1013.4
20260903120817 75 71 0.0 0.0 0.00 0.00 0.00 87 1013.4
20260903120331 75 71 0.0 0.0 0.00 0.00 0.00 87 1013.4
20260903115845 75 71 0.0 0.0 0.00 0.00 0.00 87 1013.4
20260903115339 75 71 0.0 0.0 0.00 0.00 0.00 87 1013.3
20260903114831 75 71 0.0 0.0 0.00 0.00 0.00 87 1013.3
20260903114325 75 71 0.0 0.0 0.00 0.00 0.00 87 1013.2
20260903113819 75 71 0.0 0.0 0.00 0.00 0.00 87 1013.2
20260903113351 75 70 0.0 0.0 0.00 0.00 0.00 87 1013.1
20260903112844 75 70 0.0 0.0 0.00 0.00 0.00 87 1013.0
20260903112318 75 70 0.0 0.0 0.00 0.00 0.00 87 1013.0
20260903111834 76 70 0.0 0.0 0.00 0.00 0.00 87 1013.0
20260903111329 76 70 0.0 0.0 0.00 0.00 0.00 87 1012.9
20260903110822 76 70 0.0 0.0 0.00 0.00 0.00 87 1012.9
20260903110317 76 70 0.0 0.0 0.00 0.00 0.00 86 1012.9
20260903105851 76 70 0.0 0.0 0.00 0.00 0.00 87 1012.9
20260903105324 76 70 0.0 0.0 0.00 0.00 0.00 86 1012.9
20260903104831 76 70 0.0 0.0 0.00 0.00 0.00 86 1012.8
20260903104326 76 70 0.0 0.0 0.00 0.00 0.00 86 1012.9
20260903103842 76 70 0.0 0.0 0.00 0.00 0.00 86 1012.9
20260903103331 76 70 0.0 0.0 0.00 0.00 0.00 86 1012.8
20260903102842 76 70 0.0 0.0 0.00 0.00 0.00 85 1012.8
20260903102331 76 70 0.0 0.0 0.00 0.00 0.00 86 1012.7
20260903101845 76 70 0.0 0.0 0.00 0.00 0.00 86 1012.8
20260903101319 76 70 0.0 0.0 0.00 0.00 0.00 86 1012.8
20260903100835 76 70 0.0 0.0 0.00 0.00 0.00 86 1012.8
20260903100328 76 70 0.0 0.0 0.00 0.00 0.00 86 1012.8
20260903095822 76 70 0.0 0.0 0.00 0.00 0.00 86 1012.9
20260903095318 76 70 0.0 0.0 0.00 0.00 0.00 86 1012.9
20260903094853 76 70 0.0 0.0 0.00 0.00 0.00 86 1013.0
20260903094326 76 70 0.0 0.0 0.00 0.00 0.00 86 1013.1
20260903093821 76 86 0.0 0.0 0.00 0.00 0.00 86 1013.0
20260903093352 76 86 0.0 0.0 0.00 0.00 0.00 86 1013.0
20260903092826 76 86 0.0 0.0 0.00 0.00 0.00 86 1012.9
20260903092321 76 86 0.0 0.0 0.00 0.00 0.00 86 1013.0
20260903091836 76 86 0.0 0.0 0.00 0.00 0.00 86 1013.0
20260903091351 76 86 0.0 0.0 0.00 0.00 0.00 86 1012.9
20260903090825 77 86 0.0 0.0 0.00 0.00 0.00 86 1013.0
20260903090317 76 86 0.0 0.0 0.00 0.00 0.00 86 1012.9
20260903085853 76 86 0.0 0.0 0.00 0.00 0.00 86 1012.9
20260903085327 76 86 0.0 0.0 0.00 0.00 0.00 86 1012.9
20260903084822 76 86 0.0 0.0 0.00 0.00 0.00 87 1012.9
20260903084355 76 86 0.0 0.0 0.00 0.00 0.00 87 1012.9
20260903083827 76 86 0.0 0.0 0.00 0.00 0.00 87 1012.9
20260903083341 76 86 0.0 0.0 0.00 0.00 0.00 87 1012.8
20260903082835 76 86 0.0 0.0 0.00 0.00 0.00 87 1012.8
20260903082328 76 86 0.0 0.0 0.00 0.00 0.00 87 1012.8
20260903081822 76 86 0.0 0.0 0.00 0.00 0.00 87 1012.7
20260903081356 76 86 0.0 0.0 0.00 0.00 0.00 87 1012.8
20260903080829 76 86 0.0 0.0 0.00 0.00 0.00 87 1012.8
20260903080343 76 86 0.0 0.0 0.00 0.00 0.00 87 1012.8
20260903075832 77 86 0.0 0.0 0.00 0.00 0.00 87 1012.8
20260903075326 77 86 0.0 0.0 0.00 0.00 0.00 87 1012.8
20260903074822 77 86 0.0 0.0 0.00 0.00 0.00 87 1012.8
20260903074355 77 86 0.0 0.0 0.00 0.00 0.00 87 1012.8
20260903073827 77 86 0.0 0.0 0.00 0.00 0.00 86 1012.9
20260903073322 77 86 0.0 0.0 0.00 0.00 0.00 86 1012.8
20260903072816 77 86 0.0 0.0 0.00 0.00 0.00 86 1012.8
20260903072331 77 86 0.0 0.0 0.00 0.00 0.00 86 1012.8
20260903071824 77 86 0.0 0.0 0.00 0.00 0.00 86 1012.8
20260903071318 77 86 0.0 0.0 0.00 0.00 0.00 86 1012.8
20260903070831 77 86 0.0 0.0 0.00 0.00 0.00 86 1012.9
20260903070327 77 86 0.0 0.0 0.00 0.00 0.00 86 1012.8
20260903065821 77 86 0.0 0.0 0.00 0.00 0.00 86 1012.9
20260903065317 78 86 0.0 0.0 0.00 0.00 0.00 86 1013.0
20260903064853 78 86 0.0 0.0 0.00 0.00 0.00 86 1012.9
20260903064327 78 86 0.0 0.0 0.00 0.00 0.00 85 1012.9
20260903063824 78 86 0.0 0.0 0.00 0.00 0.00 85 1012.9
20260903063318 78 86 0.0 0.0 0.00 0.00 0.00 85 1012.9
20260903062833 78 86 0.0 0.0 0.00 0.00 0.00 85 1012.9
20260903062329 78 86 0.0 0.0 0.00 0.00 0.00 85 1012.9
20260903061825 78 86 0.0 0.0 0.00 0.00 0.00 85 1012.9
20260903061317 78 86 0.0 0.0 0.00 0.00 0.00 85 1012.9
20260903060831 78 86 0.0 0.0 0.00 0.00 0.00 85 1012.9
20260903060345 78 86 0.0 0.0 0.00 0.00 0.00 85 1012.9
20260903055819 78 86 0.0 0.0 0.00 0.00 0.00 85 1013.0
20260903055335 78 86 0.0 0.0 0.00 0.00 0.00 86 1012.9
20260903054827 78 86 0.0 0.0 0.00 0.00 0.00 86 1012.9
20260903054322 78 86 0.0 0.0 0.00 0.00 0.00 86 1013.0
20260903053818 78 86 0.0 0.0 0.00 0.00 0.00 86 1013.0
20260903053334 78 86 0.0 0.0 0.00 0.00 0.00 86 1013.0
20260903052828 78 86 0.0 0.0 0.00 0.00 0.00 86 1013.0
20260903052322 78 86 0.0 0.0 0.00 0.00 0.00 86 1013.0
20260903051817 79 86 0.0 0.0 0.00 0.00 0.00 86 1013.0
20260903051350 79 86 0.0 0.0 0.00 0.00 0.00 85 1013.0
20260903050824 79 86 0.0 0.0 0.00 0.00 0.00 86 1013.0
20260903050320 79 86 0.0 0.0 0.00 0.00 0.00 85 1013.0
20260903045849 79 86 0.0 0.0 0.00 0.00 0.00 85 1013.0
20260903045345 79 86 0.0 0.0 0.00 0.00 0.00 85 1012.9
20260903044820 79 86 0.0 0.0 0.00 0.00 0.00 85 1012.8
20260903044334 79 86 0.0 0.0 0.00 0.00 0.00 86 1012.9
20260903043848 79 86 0.0 0.0 0.00 0.00 0.00 86 1012.9
20260903043323 79 86 0.0 0.0 0.00 0.00 0.00 86 1012.9
20260903042819 79 86 0.0 0.0 0.00 0.00 0.00 86 1012.8
20260903042335 79 86 0.0 0.0 0.00 0.00 0.00 86 1012.8
20260903041830 79 86 0.0 0.0 0.00 0.00 0.00 86 1012.8
20260903041327 79 86 0.0 0.0 0.00 0.00 0.00 86 1012.9
20260903040822 80 86 0.0 0.0 0.00 0.00 0.00 86 1012.8
20260903040317 80 86 0.0 0.0 0.00 0.00 0.00 86 1012.8
20260903035832 80 86 0.0 0.0 0.00 0.00 0.00 86 1012.8
20260903035327 80 86 0.0 0.0 0.00 0.00 0.00 86 1012.8
20260903034843 80 86 0.0 0.0 0.00 0.00 0.00 85 1012.8
20260903034328 80 86 0.0 0.0 0.00 0.00 0.00 85 1012.8
20260903033824 80 86 0.0 0.0 0.00 0.00 0.00 85 1012.8
20260903033319 80 86 0.0 0.0 0.00 0.00 0.00 85 1012.8
20260903032834 80 86 0.0 0.0 0.00 0.00 0.00 85 1012.8
20260903032329 80 86 0.0 0.0 0.00 0.00 0.00 85 1012.8
20260903031824 80 86 0.0 0.0 0.00 0.00 0.00 85 1012.9
20260903031339 81 86 0.0 0.0 0.00 0.00 0.00 85 1012.8
20260903030833 81 86 0.0 0.0 0.00 0.00 0.00 85 1012.8
20260903030328 81 86 0.0 0.0 0.00 0.00 0.00 85 1012.8
20260903025824 81 86 0.0 0.0 0.00 0.00 0.00 85 1012.8
20260903025334 81 86 0.0 0.0 0.00 0.00 0.00 85 1012.8
20260903024824 81 86 0.0 0.0 0.00 0.00 0.00 85 1012.6
20260903024340 81 86 0.0 0.0 0.00 0.00 0.00 85 1012.6
20260903023832 81 86 0.0 0.0 0.00 0.00 0.00 85 1012.6
20260903023326 81 86 0.0 0.0 0.00 0.00 0.00 85 1012.6
20260903022822 81 86 0.0 0.0 0.00 0.00 0.00 85 1012.6
20260903022318 81 86 0.0 0.0 0.00 0.00 0.00 85 1012.5
20260903021832 81 86 0.0 0.0 0.00 0.00 0.00 85 1012.6
20260903021326 81 86 0.0 0.0 0.00 0.00 0.00 85 1012.6
20260903020820 82 86 0.0 0.0 0.00 0.00 0.00 84 1012.7
20260903020316 82 86 0.0 0.0 0.00 0.00 0.00 84 1012.5
20260903015831 82 86 0.0 0.0 0.00 0.00 0.00 84 1012.6
20260903015326 82 86 0.0 0.0 0.00 0.00 0.00 84 1012.6
20260903014820 82 86 0.0 0.0 0.00 0.00 0.00 84 1012.5
20260903014317 83 86 0.0 0.0 0.00 0.00 0.00 83 1012.5
20260903013832 83 86 0.0 0.0 0.00 0.00 0.00 83 1012.5
20260903013327 83 86 0.0 0.0 0.00 0.00 0.00 83 1012.4
20260903012824 83 86 0.0 0.0 0.00 0.00 0.00 82 1012.3
20260903012317 84 86 0.0 0.0 0.00 0.00 0.00 82 1012.2
20260903011832 84 86 0.0 0.0 0.00 0.00 0.00 82 1012.3
20260903011327 84 86 0.0 0.0 0.00 0.00 0.00 81 1012.3
20260903010842 85 86 0.0 0.0 0.00 0.00 0.00 81 1012.3
20260903010334 85 86 0.0 0.0 0.00 0.00 0.00 80 1012.3
20260903005828 85 86 0.0 0.0 0.00 0.00 0.00 80 1012.2
20260903005323 85 86 0.0 0.0 0.00 0.00 0.00 79 1012.3
20260903004818 86 86 0.0 0.0 0.00 0.00 0.00 79 1012.3
20260903004333 86 86 0.0 0.0 0.00 0.00 0.00 78 1012.3
20260903003829 86 86 0.0 0.0 0.00 0.00 0.00 78 1012.3
20260903003322 87 86 0.0 0.0 0.00 0.00 0.00 77 1012.3
20260903002833 87 86 0.0 0.0 0.00 0.00 0.00 77 1012.3
20260903002327 87 86 0.0 0.0 0.00 0.00 0.00 77 1012.2
20260903001823 88 86 0.0 0.0 0.00 0.00 0.00 76 1012.3
20260903001338 88 86 0.0 0.0 0.00 0.00 0.00 76 1012.3
20260903000829 88 86 0.0 0.0 0.00 0.00 0.00 75 1012.3
20260903000325 88 86 0.0 0.0 0.00 0.00 0.00 75 1012.3
20260902235817 89 86 0.0 0.0 0.00 0.00 0.00 75 1012.3
20260902235329 89 86 0.0 0.0 0.00 0.00 0.00 74 1012.3
20260902234843 89 86 0.0 0.0 0.00 0.00 0.00 74 1012.2
20260902234331 89 86 0.0 0.0 0.00 0.00 0.00 73 1012.3
20260902233823 90 86 0.0 0.0 0.00 0.00 0.00 73 1012.3
20260902233317 90 86 0.0 0.0 0.00 0.00 0.00 72 1012.4
20260902232831 90 86 0.0 0.0 0.00 0.00 0.00 71 1012.4
20260902232326 90 86 0.0 0.0 0.00 0.00 0.00 70 1012.4
20260902231840 90 86 0.0 0.0 0.00 0.00 0.00 69 1012.6
20260902231333 90 86 0.0 0.0 0.00 0.00 0.00 69 1012.4
20260902230827 91 86 0.0 0.0 0.00 0.00 0.00 68 1012.5
20260902230322 91 86 0.0 0.0 0.00 0.00 0.00 67 1012.5
20260902225816 91 86 0.0 0.0 0.00 0.00 0.00 67 1012.4
20260902225332 91 86 0.0 1.0 0.00 0.00 0.00 66 1012.5
20260902224826 91 86 0.0 2.0 0.00 0.00 0.00 65 1012.5
20260902224321 92 72 0.0 2.0 0.00 0.00 0.00 64 1012.5
20260902223835 92 127 0.0 2.0 0.00 0.00 0.00 64 1012.5
20260902223348 92 5 0.0 2.0 0.00 0.00 0.00 63 1012.6
20260902222822 92 240 0.0 2.0 0.00 0.00 0.00 63 1012.6
20260902222317 93 153 0.0 2.0 0.00 0.00 0.00 62 1012.5
20260902221831 93 55 0.0 2.0 0.00 0.00 0.00 62 1012.6
20260902221327 93 117 0.0 2.0 0.00 0.00 0.00 61 1012.6
20260902220823 93 157 0.0 2.0 0.00 0.00 0.00 60 1012.6
20260902220337 94 86 0.0 1.0 0.00 0.00 0.00 61 1012.7
20260902215832 94 38 0.0 1.0 0.00 0.00 0.00 61 1012.7
20260902215325 94 16 0.0 1.0 0.00 0.00 0.00 60 1012.7
20260902214820 95 331 0.0 1.0 0.00 0.00 0.00 61 1012.7
20260902214316 95 295 0.0 4.0 0.00 0.00 0.00 58 1012.8
20260902213832 95 65 1.0 4.0 0.00 0.00 0.00 57 1012.8
20260902213347 95 36 0.0 3.0 0.00 0.00 0.00 58 1012.8
20260902212822 95 233 0.0 2.0 0.00 0.00 0.00 57 1012.8
20260902212338 95 96 1.0 2.0 0.00 0.00 0.00 56 1012.8
20260902211827 95 225 0.0 2.0 0.00 0.00 0.00 61 1012.8
20260902211324 95 44 0.0 2.0 0.00 0.00 0.00 58 1012.8
20260902210816 95 273 0.0 2.0 0.00 0.00 0.00 58 1012.8
20260902210331 96 300 0.0 2.0 0.00 0.00 0.00 57 1012.9
20260902205826 96 145 0.0 3.0 0.00 0.00 0.00 58 1012.8
20260902205321 96 118 1.0 4.0 0.00 0.00 0.00 56 1012.9
20260902204856 96 53 1.0 4.0 0.00 0.00 0.00 56 1012.9
20260902204351 96 302 1.0 3.0 0.00 0.00 0.00 55 1013.0
20260902203825 96 137 0.0 3.0 0.00 0.00 0.00 57 1013.0
20260902203340 96 92 1.0 4.0 0.00 0.00 0.00 56 1012.9
20260902202833 96 336 0.0 4.0 0.00 0.00 0.00 56 1012.9
20260902202328 96 226 1.0 3.0 0.00 0.00 0.00 56 1012.9
20260902201843 96 46 0.0 2.0 0.00 0.00 0.00 57 1012.9
20260902201331 96 259 0.0 6.0 0.00 0.00 0.00 55 1012.9
20260902200823 96 336 1.0 6.0 0.00 0.00 0.00 55 1013.0
20260902200318 96 205 1.0 4.0 0.00 0.00 0.00 55 1013.2
20260902195832 96 282 1.0 2.0 0.00 0.00 0.00 55 1013.1
20260902195327 97 107 0.0 4.0 0.00 0.00 0.00 55 1013.1
20260902194841 97 145 1.0 4.0 0.00 0.00 0.00 54 1013.2
20260902194333 97 255 0.0 2.0 0.00 0.00 0.00 60 1013.3
20260902193846 96 360 1.0 3.0 0.00 0.00 0.00 54 1013.3
20260902193319 96 250 1.0 5.0 0.00 0.00 0.00 53 1013.4
20260902192848 96 19 1.0 5.0 0.00 0.00 0.00 52 1013.4
20260902192323 96 273 1.0 3.0 0.00 0.00 0.00 53 1013.3
20260902191817 96 49 1.0 3.0 0.00 0.00 0.00 54 1013.4
20260902191332 95 199 1.0 3.0 0.00 0.00 0.00 54 1013.4
20260902190826 96 14 1.0 3.0 0.00 0.00 0.00 52 1013.4
20260902190320 96 306 1.0 4.0 0.00 0.00 0.00 54 1013.6
20260902185835 96 150 2.0 4.0 0.00 0.00 0.00 53 1013.7
20260902185329 96 355 0.0 3.0 0.00 0.00 0.00 55 1013.7
20260902184844 96 40 1.0 4.0 0.00 0.00 0.00 57 1013.8
20260902184338 95 173 0.0 4.0 0.00 0.00 0.00 56 1013.7
20260902183832 95 355 1.0 3.0 0.00 0.00 0.00 54 1013.8
20260902183346 94 327 1.0 3.0 0.00 0.00 0.00 57 1013.9
20260902182839 94 252 0.0 3.0 0.00 0.00 0.00 58 1013.9
20260902182332 94 326 1.0 4.0 0.00 0.00 0.00 57 1013.9
20260902181827 94 329 2.0 6.0 0.00 0.00 0.00 53 1014.1
20260902181322 95 19 1.0 6.0 0.00 0.00 0.00 53 1014.0
20260902180835 94 241 1.0 3.0 0.00 0.00 0.00 56 1014.1
20260902180331 94 230 1.0 4.0 0.00 0.00 0.00 54 1014.1
20260902175844 95 230 1.0 4.0 0.00 0.00 0.00 57 1014.1
20260902175317 94 327 1.0 3.0 0.00 0.00 0.00 57 1014.2
20260902174851 94 157 0.0 3.0 0.00 0.00 0.00 55 1014.3
20260902174322 94 258 1.0 4.0 0.00 0.00 0.00 54 1014.4
20260902173818 94 313 1.0 4.0 0.00 0.00 0.00 58 1014.4
20260902173329 94 234 1.0 4.0 0.00 0.00 0.00 57 1014.5
20260902172825 94 282 1.0 4.0 0.00 0.00 0.00 58 1014.4
20260902172319 94 275 1.0 3.0 0.00 0.00 0.00 56 1014.4
20260902171831 94 243 0.0 4.0 0.00 0.00 0.00 63 1014.4
20260902171346 93 36 0.0 4.0 0.00 0.00 0.00 60 1014.4
20260902170818 93 310 1.0 3.0 0.00 0.00 0.00 59 1014.6
20260902170332 93 74 1.0 3.0 0.00 0.00 0.00 59 1014.6
20260902165827 92 239 0.0 3.0 0.00 0.00 0.00 61 1014.7
20260902165322 92 273 1.0 3.0 0.00 0.00 0.00 62 1014.6
20260902164818 91 279 0.0 3.0 0.00 0.00 0.00 61 1014.7
20260902164332 91 314 1.0 3.0 0.00 0.00 0.00 63 1014.7
20260902163826 91 279 0.0 5.0 0.00 0.00 0.00 65 1014.6
20260902163321 90 200 1.0 5.0 0.00 0.00 0.00 65 1014.7
20260902162816 90 284 0.0 4.0 0.00 0.00 0.00 65 1014.7
20260902162331 90 269 1.0 4.0 0.00 0.00 0.00 65 1014.6
20260902161824 90 144 0.0 1.0 0.00 0.00 0.00 70 1014.6
20260902161319 89 144 0.0 1.0 0.00 0.00 0.00 68 1014.6
20260902160832 89 132 0.0 1.0 0.00 0.00 0.00 69 1014.6
20260902160325 88 308 0.0 1.0 0.00 0.00 0.00 71 1014.6
20260902155839 88 265 0.0 1.0 0.00 0.00 0.00 72 1014.6
20260902155331 87 265 0.0 1.0 0.00 0.00 0.00 71 1014.7
20260902154825 87 265 0.0 1.0 0.00 0.00 0.00 72 1014.6
20260902154341 87 265 0.0 3.0 0.00 0.00 0.00 71 1014.6
20260902153853 86 64 0.0 3.0 0.00 0.00 0.00 74 1014.7
20260902153326 86 325 0.0 1.0 0.00 0.00 0.00 72 1014.7
20260902152821 85 101 0.0 2.0 0.00 0.00 0.00 74 1014.7
20260902152332 85 95 0.0 1.0 0.00 0.00 0.00 73 1014.8
20260902151825 85 117 0.0 1.0 0.00 0.00 0.00 74 1014.7
20260902151318 84 355 0.0 2.0 0.00 0.00 0.00 72 1014.7
20260902150833 84 156 0.0 2.0 0.00 0.00 0.00 75 1014.7
20260902150328 84 214 0.0 1.0 0.00 0.00 0.00 75 1014.7
20260902145823 83 246 0.0 2.0 0.00 0.00 0.00 74 1014.7
20260902145317 83 184 0.0 2.0 0.00 0.00 0.00 73 1014.9
20260902144831 83 215 1.0 2.0 0.00 0.00 0.00 74 1014.9
20260902144324 82 90 0.0 3.0 0.00 0.00 0.00 76 1014.9
20260902143818 82 211 0.0 3.0 0.00 0.00 0.00 78 1015.0